FW6983 Weather Reports


time (UTC)temp
C
wind
direction
speed
KPH
gust
KPH
rain 1hr
cm
rain 24hr
cm
rain mn
cm
humidity
%
barometer
mb
20260906044557 22 0 0.0 0.0 0.00 0.00 0.00 92 1014.6
20260906043053 22 0 0.0 1.6 0.00 0.00 0.00 92 1014.8
20260906041557 22 0 0.0 0.0 0.00 0.00 0.00 92 1014.5
20260906040137 22 0 0.0 3.2 0.00 0.00 0.00 92 1014.8
20260906034603 22 0 1.6 3.2 0.00 0.00 0.00 92 1015.1
20260906033104 22 0 0.0 1.6 0.00 0.00 0.00 92 1015.2
20260906031603 22 0 0.0 1.6 0.00 0.00 0.00 92 1015.2
20260906030058 22 0 0.0 3.2 0.00 0.00 0.00 91 1015.1
20260906024553 23 0 0.0 1.6 0.00 0.00 0.00 91 1014.5
20260906023057 23 0 0.0 4.8 0.00 0.00 0.00 91 1014.5
20260906021605 23 0 0.0 3.2 0.00 0.00 0.00 91 1014.5
20260906020058 23 336 0.0 1.6 0.00 0.00 0.00 91 1014.4
20260906014602 23 0 0.0 3.2 0.00 0.00 0.00 90 1014.3
20260906013058 23 0 0.0 0.0 0.00 0.00 0.00 89 1014.5
20260906011558 24 0 0.0 1.6 0.00 0.00 0.00 89 1014.5
20260906010105 24 0 0.0 0.0 0.00 0.00 0.00 88 1014.3
20260906004605 25 0 0.0 0.0 0.00 0.00 0.00 87 1014.0
20260906003103 25 0 0.0 1.6 0.00 0.00 0.00 86 1013.9
20260906001619 25 0 0.0 1.6 0.00 0.00 0.00 85 1013.8
20260906000054 26 0 0.0 0.0 0.00 0.00 0.00 85 1013.5
20260905234602 26 0 0.0 0.0 0.00 0.00 0.00 84 1013.3
20260905233113 27 0 0.0 0.0 0.00 0.00 0.00 83 1013.3
20260905231558 27 0 0.0 0.0 0.00 0.00 0.00 83 1013.4
20260905230113 27 0 0.0 0.0 0.00 0.00 0.00 82 1013.5
20260905224607 27 0 0.0 0.0 0.00 0.00 0.00 83 1013.5
20260905223059 27 0 0.0 0.0 0.00 0.00 0.00 83 1013.4
20260905221601 27 0 0.0 0.0 0.00 0.00 0.00 81 1013.4
20260905220105 27 0 0.0 1.6 0.00 0.00 0.00 80 1013.3
20260905214600 27 0 0.0 3.2 0.00 0.00 0.00 80 1013.5
20260905213110 27 0 0.0 4.8 0.00 0.00 0.00 79 1013.8
20260905211606 27 0 0.0 3.2 0.00 0.00 0.00 75 1013.8
20260905210108 27 268 0.0 4.8 0.00 0.00 0.00 77 1014.2
20260905204554 27 284 0.0 3.2 0.00 0.00 0.00 74 1014.2
20260905203100 27 311 1.6 4.8 0.00 0.00 0.00 73 1014.2
20260905201610 27 0 0.0 1.6 0.00 0.00 0.00 73 1014.5
20260905200125 26 0 0.0 6.4 0.00 0.00 0.00 74 1014.5
20260905194614 26 319 1.6 4.8 0.00 0.00 0.00 78 1014.7
20260905193057 26 151 1.6 4.8 0.00 0.00 0.00 76 1015.1
20260905191603 26 0 1.6 16.1 0.00 0.00 0.00 75 1015.4
20260905190104 26 0 0.0 6.4 0.00 0.00 0.00 80 1015.8
20260905184611 27 92 0.0 9.7 0.00 0.00 0.00 75 1015.4
20260905183059 29 289 3.2 20.9 0.00 0.00 0.00 68 1014.9
20260905181607 31 229 8.0 29.0 0.00 0.00 0.00 62 1015.0
20260905174606 33 0 0.0 0.0 0.00 0.00 0.00 54 1014.6
20260905173101 34 0 0.0 0.0 0.00 0.00 0.00 53 1014.7
20260905171605 34 0 0.0 0.0 0.00 0.00 0.00 54 1014.7
20260905170058 35 0 0.0 0.0 0.00 0.00 0.00 52 1014.9
20260905164601 34 0 0.0 0.0 0.00 0.00 0.00 56 1015.4
20260905163058 34 0 0.0 0.0 0.00 0.00 0.00 58 1015.7
20260905161558 33 0 0.0 0.0 0.00 0.00 0.00 63 1015.7
20260905160105 33 0 0.0 0.0 0.00 0.00 0.00 64 1015.7
20260905154559 33 0 0.0 0.0 0.00 0.00 0.00 68 1015.8
20260905153055 32 0 0.0 0.0 0.00 0.00 0.00 69 1015.8
20260905151605 31 0 0.0 0.0 0.00 0.00 0.00 68 1016.0
20260905144558 31 0 0.0 0.0 0.00 0.00 0.00 72 1015.9
20260905143056 30 0 0.0 0.0 0.00 0.00 0.00 73 1016.1
20260905141607 29 0 0.0 0.0 0.00 0.00 0.00 76 1016.2
20260905134558 27 0 0.0 0.0 0.00 0.00 0.00 82 1016.5
20260905133105 25 0 0.0 0.0 0.00 0.00 0.00 92 1016.4
20260905131611 23 0 0.0 0.0 0.00 0.00 0.00 94 1016.6
20260905130100 22 0 0.0 0.0 0.00 0.00 0.00 94 1016.6
20260905124556 22 0 0.0 0.0 0.00 0.00 0.00 94 1016.6
20260905123056 21 0 0.0 0.0 0.00 0.00 0.00 93 1016.5
20260905121557 21 0 0.0 0.0 0.00 0.00 0.00 93 1016.5
20260905120056 21 0 0.0 0.0 0.00 0.00 0.00 93 1016.4
20260905114612 21 0 0.0 0.0 0.00 0.00 0.00 92 1016.3
20260905113058 21 0 0.0 0.0 0.00 0.00 0.00 92 1016.2
20260905111608 21 0 0.0 0.0 0.00 0.00 0.00 92 1015.9
20260905110105 21 0 0.0 0.0 0.00 0.00 0.00 92 1015.4
20260905104601 21 0 0.0 0.0 0.00 0.00 0.00 92 1015.4
20260905103056 21 0 0.0 0.0 0.00 0.00 0.00 92 1015.4
20260905101558 21 0 0.0 0.0 0.00 0.00 0.00 92 1015.3
20260905100108 21 0 0.0 0.0 0.00 0.00 0.00 92 1015.3
20260905094608 21 0 0.0 0.0 0.00 0.00 0.00 92 1015.1
20260905093058 22 0 0.0 0.0 0.00 0.00 0.00 92 1015.2
20260905091610 22 0 0.0 0.0 0.00 0.00 0.00 92 1015.2
20260905090105 22 0 0.0 0.0 0.00 0.00 0.00 92 1015.2
20260905084559 22 0 0.0 0.0 0.00 0.00 0.00 92 1015.3
20260905083056 22 0 0.0 0.0 0.00 0.00 0.00 92 1015.4
20260905081620 22 0 0.0 0.0 0.00 0.00 0.00 92 1015.3
20260905080100 22 0 0.0 0.0 0.00 0.00 0.00 92 1015.6
20260905074556 22 0 0.0 0.0 0.00 0.00 0.00 92 1015.6
20260905073103 22 0 0.0 0.0 0.00 0.00 0.00 92 1015.8
20260905071604 22 0 0.0 0.0 0.00 0.00 0.00 92 1015.9
20260905070059 22 0 0.0 0.0 0.00 0.00 0.00 92 1016.0
20260905064559 22 0 0.0 0.0 0.00 0.00 0.00 91 1016.0
20260905063118 23 0 0.0 0.0 0.00 0.00 0.00 91 1016.3
20260905061613 23 0 0.0 0.0 0.00 0.00 0.00 91 1016.4
20260905060058 23 0 0.0 0.0 0.00 0.00 0.00 91 1016.5
20260905054606 23 0 0.0 0.0 0.00 0.00 0.00 91 1016.8
20260905053102 23 0 0.0 0.0 0.00 0.00 0.00 91 1017.0
20260905051600 23 0 0.0 0.0 0.00 0.00 0.00 91 1016.9
20260905050057 23 0 0.0 0.0 0.00 0.00 0.00 90 1016.9